[[{"header":{"parameterUnit":"m.s-1","parameterCategory":1,"la1":30.2991,"la2":30.254,"lo1":-89.0895,"lo2":-89.0444,"dy":0.0017,"dx":0.0017,"nx":28,"ny":28,"refTime":"2025-02-09T03:00:00:Z","depth":0,"parameterNumber":2,"parameterNumberName":"U-component_of_WINDS"},"data":[0,0,0,0,0,0,0,0,0,0,0,0,0,0,0,0,0,0,0,0,0,0,0,0,0,0,0,0,0,0,0,0,0,0,0,0,0,0,0,0,0,0,0,0,0,0,0,0,0,0,0,0,0,0,0,0,0,0,-0.2048,-0.2047,0,-0.1983,-0.1983,-0.1982,-0.1892,-0.189,-0.1889,-0.1887,-0.1823,-0.1823,-0.1823,0,0,0,0,0,0,0,0,0,0,0,0,0,-0.2093,-0.2093,-0.2048,-0.2047,-0.2046,-0.1984,-0.1983,-0.1982,-0.1892,-0.189,-0.1888,-0.1886,-0.1824,-0.1823,-0.1823,0,0,0,0,0,0,0,0,0,0,0,0,0,-0.2056,-0.2093,-0.2048,-0.1994,-0.1988,-0.1984,-0.1983,-0.1982,-0.1892,-0.189,-0.1888,-0.1886,-0.1824,-0.1823,-0.1823,-0.1867,0,0,-0.1822,-0.1822,0,0,0,0,0,0,0,0,-0.2058,-0.2054,-0.2002,-0.1997,-0.1991,-0.1943,-0.1975,-0.1943,-0.1893,-0.1929,-0.1887,-0.1884,-0.1865,-0.1861,-0.1854,-0.1864,-0.1861,-0.1822,-0.1822,-0.1821,-0.1821,0,0,0,0,0,0,0,-0.2061,-0.2057,-0.2022,-0.2002,-0.1995,-0.1973,-0.1965,-0.1969,-0.1911,-0.1925,-0.1919,-0.1912,-0.1862,-0.1855,-0.1852,-0.186,-0.1822,-0.1821,-0.1821,-0.1821,-0.1901,-0.1903,0,0,0,0,0,0,-0.2071,-0.2059,-0.2024,-0.202,-0.202,-0.1974,-0.1965,-0.1961,-0.1911,-0.1901,-0.1914,-0.1908,-0.1857,-0.1853,-0.185,-0.1896,-0.1821,-0.1821,-0.1821,-0.1899,-0.1901,-0.1904,0,0,0,0,0,0,-0.2073,-0.2069,-0.2027,-0.2038,-0.2031,-0.1976,-0.1972,-0.1961,-0.1954,-0.1902,-0.1892,-0.1918,-0.1855,-0.185,-0.1863,-0.1893,-0.1821,-0.182,-0.1896,-0.1899,-0.1903,-0.1992,0,0,0,0,0,0,-0.2074,-0.207,-0.2086,-0.2039,-0.2031,-0.2041,-0.1974,-0.1961,-0.1953,-0.1945,-0.1903,-0.1894,-0.1853,-0.1864,-0.1862,-0.1891,-0.182,-0.1893,-0.1897,-0.1902,-0.1986,-0.1998,-0.2008,0,0,0,0,0,-0.2076,-0.2115,-0.2087,-0.2084,-0.205,-0.2043,-0.2038,-0.199,-0.1956,-0.1972,-0.1938,-0.1895,-0.189,-0.1866,-0.1864,-0.1893,-0.1891,-0.1896,-0.1901,-0.1981,-0.1995,-0.2008,0,0,0,0,0,0,-0.2168,-0.2108,-0.2077,-0.2101,-0.2078,-0.2028,-0.2046,-0.2007,-0.1994,-0.1986,-0.1927,-0.1919,-0.1938,-0.1917,-0.1891,-0.1932,-0.1884,-0.1889,-0.1945,-0.1959,-0.197,-0.1974,-0.182,0,0,0,0,0,-0.2191,-0.219,-0.2138,-0.2164,-0.2154,-0.2102,-0.2098,-0.2062,-0.2036,-0.2026,-0.1993,-0.197,-0.1963,-0.196,-0.1951,-0.1982,-0.1971,-0.2001,-0.2012,-0.2022,-0.2027,-0.204,-0.2053,-0.1921,-0.1921,-0.1921,0,0,-0.2238,-0.2205,-0.2209,-0.2181,-0.2159,-0.216,-0.2095,-0.2098,-0.2098,-0.2027,-0.2036,-0.2011,-0.1981,-0.2003,-0.2011,-0.1986,-0.206,-0.2029,-0.2036,-0.2036,-0.2047,-0.206,-0.2071,-0.1925,-0.1924,-0.1924,0,0,-0.2325,-0.23,-0.2319,-0.2297,-0.2264,-0.2229,-0.2234,-0.219,-0.217,-0.2178,-0.2124,-0.2123,-0.2113,-0.2093,-0.2082,-0.216,-0.2119,-0.2158,-0.2217,-0.2231,-0.2241,-0.225,-0.2276,-0.2287,-0.2164,-0.2164,-0.2164,0,-0.2388,-0.2386,-0.2333,-0.234,-0.2329,-0.2263,-0.2281,-0.2264,-0.223,-0.2224,-0.2196,-0.218,-0.2155,-0.2171,-0.219,-0.2183,-0.2186,-0.2163,-0.2244,-0.2252,-0.2259,-0.2284,-0.2294,-0.2169,-0.2168,-0.2168,-0.2167,0,-0.2465,-0.2465,-0.2484,-0.2451,-0.2443,-0.2456,-0.2404,-0.2402,-0.2367,-0.2335,-0.2344,-0.2312,-0.2294,-0.2295,-0.2262,-0.2306,-0.2291,-0.2254,-0.2205,-0.2278,-0.23,-0.2309,-0.2176,-0.2174,-0.2173,-0.2171,0,0,-0.2608,-0.2545,-0.2553,-0.2537,-0.2495,-0.2493,-0.2503,-0.2484,-0.2483,-0.2462,-0.2468,-0.246,-0.2425,-0.2412,-0.2376,-0.2388,-0.245,-0.2349,-0.2348,-0.2368,-0.2495,-0.2522,-0.2534,-0.2423,-0.2424,-0.2426,-0.2497,0,-0.2686,-0.2697,-0.2649,-0.2673,-0.2672,-0.2609,-0.2616,-0.2592,-0.2562,-0.2556,-0.2524,-0.2518,-0.2473,-0.2465,-0.2475,-0.2441,-0.2475,-0.2435,-0.2427,-0.2428,-0.2436,-0.2546,-0.2575,-0.2644,-0.2505,-0.2507,-0.2508,0,-0.2778,-0.276,-0.2784,-0.2739,-0.2737,-0.2745,-0.2723,-0.2719,-0.2689,-0.2666,-0.2652,-0.2609,-0.2615,-0.2568,-0.2574,-0.2548,-0.2542,-0.2525,-0.2526,-0.2523,-0.2472,-0.2545,-0.2665,-0.2675,-0.2521,-0.252,-0.2519,0,-0.2879,-0.2861,-0.2872,-0.286,-0.2809,-0.2815,-0.2794,-0.2762,-0.2754,-0.2735,-0.2729,-0.2712,-0.2703,-0.269,-0.2644,-0.2615,-0.2656,-0.2605,-0.2637,-0.2638,-0.2648,-0.2648,-0.2768,-0.2646,-0.2646,-0.2645,-0.2645,0,-0.297,-0.2987,-0.2916,-0.2923,-0.2939,-0.2884,-0.2902,-0.2875,-0.2846,-0.2847,-0.2792,-0.2793,-0.2732,-0.2727,-0.2691,-0.2701,-0.2698,-0.2679,-0.267,-0.2684,-0.2686,-0.2679,-0.2672,-0.2648,-0.2648,-0.2647,-0.2647,0,-0.3085,-0.3038,-0.3046,-0.2996,-0.2984,-0.2998,-0.2955,-0.296,-0.2926,-0.2927,-0.2924,-0.2872,-0.2863,-0.2815,-0.2796,-0.2771,-0.2794,-0.2775,-0.2803,-0.2797,-0.283,-0.2828,-0.2949,-0.2962,-0.2833,-0.2835,-0.2836,0,-0.3146,-0.3157,-0.3108,-0.3103,-0.3084,-0.3079,-0.307,-0.3015,-0.3008,-0.2974,-0.2982,-0.2968,-0.2954,-0.2942,-0.2903,-0.2887,-0.2866,-0.291,-0.2864,-0.2877,-0.2865,-0.2865,-0.2865,-0.292,-0.2922,-0.2923,-0.2924,0,-0.3259,-0.3235,-0.3223,-0.3203,-0.3194,-0.3176,-0.3154,-0.3154,-0.3094,-0.3088,-0.3077,-0.3067,-0.3045,-0.3032,-0.3009,-0.2987,-0.2946,-0.2939,-0.2945,-0.2959,-0.2975,-0.2966,-0.2829,-0.2936,-0.2935,-0.2934,-0.2933,-0.2933,-0.3347,-0.3354,-0.332,-0.3308,-0.3286,-0.3267,-0.3268,-0.3234,-0.3224,-0.3202,-0.3171,-0.3164,-0.3133,-0.3097,-0.3079,-0.3072,-0.3049,-0.3058,-0.306,-0.3063,-0.307,-0.2977,-0.3068,-0.3068,-0.3067,-0.3067,-0.3067,0,-0.3456,-0.3431,-0.3421,-0.3392,-0.3383,-0.3344,-0.3318,-0.3313,-0.3308,-0.3282,-0.3268,-0.3255,-0.3242,-0.3201,-0.3183,-0.3186,-0.3166,-0.3183,-0.3182,-0.3177,-0.3093,-0.3089,-0.3199,-0.3199,-0.3199,-0.3199,-0.3199,-0.3199,-0.3512,-0.352,-0.3492,-0.3488,-0.3463,-0.3455,-0.3443,-0.3425,-0.3404,-0.3392,-0.338,-0.3353,-0.332,-0.3299,-0.3285,-0.3273,-0.3268,-0.3291,-0.3273,-0.3196,-0.3183,-0.3171,-0.3167,-0.3291,-0.3291,-0.3357,-0.3358,-0.3358]},{"header":{"parameterUnit":"m.s-1","parameterCategory":1,"la1":30.2991,"la2":30.254,"lo1":-89.0895,"lo2":-89.0444,"dy":0.0017,"dx":0.0017,"nx":28,"ny":28,"refTime":"2025-02-09T03:00:00:Z","depth":0,"parameterNumber":3,"parameterNumberName":"V-component_of_WINDS"},"data":[0,0,0,0,0,0,0,0,0,0,0,0,0,0,0,0,0,0,0,0,0,0,0,0,0,0,0,0,0,0,0,0,0,0,0,0,0,0,0,0,0,0,0,0,0,0,0,0,0,0,0,0,0,0,0,0,0,0,2.2532,2.2533,0,2.2606,2.2607,2.2608,2.2643,2.2643,2.2643,2.2643,2.2716,2.2718,2.272,0,0,0,0,0,0,0,0,0,0,0,0,0,2.242,2.2421,2.2532,2.2533,2.2534,2.2606,2.2607,2.2608,2.2643,2.2643,2.2643,2.2643,2.2716,2.2718,2.272,0,0,0,0,0,0,0,0,0,0,0,0,0,2.2478,2.2422,2.2532,2.256,2.2564,2.2606,2.2607,2.2608,2.2643,2.2643,2.2643,2.2643,2.2715,2.2718,2.2721,2.2739,0,0,2.273,2.2731,0,0,0,0,0,0,0,0,2.2475,2.2482,2.2555,2.2558,2.2562,2.2616,2.2594,2.2652,2.2643,2.2613,2.2643,2.2643,2.2683,2.2688,2.2702,2.2743,2.2746,2.273,2.2732,2.2733,2.2734,0,0,0,0,0,0,0,2.2471,2.2479,2.2561,2.2556,2.256,2.2569,2.2577,2.2605,2.2647,2.2616,2.2618,2.2627,2.2685,2.2699,2.2704,2.2747,2.273,2.2733,2.2734,2.2735,2.2807,2.2807,0,0,0,0,0,0,2.2462,2.2476,2.2559,2.2563,2.2518,2.2571,2.258,2.2598,2.2647,2.2654,2.2627,2.2628,2.2694,2.2701,2.2707,2.2732,2.2733,2.2736,2.2737,2.2806,2.2807,2.2807,0,0,0,0,0,0,2.246,2.2469,2.2556,2.252,2.2532,2.2573,2.2593,2.26,2.2615,2.2655,2.2663,2.2634,2.2694,2.2703,2.2731,2.2735,2.2737,2.274,2.2806,2.2807,2.2807,2.2782,0,0,0,0,0,0,2.2456,2.2468,2.2476,2.252,2.2534,2.2579,2.2593,2.2601,2.262,2.2622,2.2664,2.2671,2.2695,2.2727,2.2734,2.2739,2.2742,2.2806,2.2806,2.2807,2.2783,2.2782,2.2781,0,0,0,0,0,2.2452,2.2466,2.2476,2.2486,2.2544,2.258,2.2587,2.2615,2.262,2.2628,2.2654,2.267,2.2733,2.2729,2.2738,2.2744,2.2806,2.2806,2.2807,2.2783,2.2782,2.2781,0,0,0,0,0,0,2.242,2.2472,2.2484,2.2512,2.2541,2.2586,2.2597,2.2613,2.264,2.2642,2.2675,2.2684,2.2709,2.2729,2.2724,2.2765,2.2771,2.2773,2.2751,2.2749,2.2748,2.2743,2.2744,0,0,0,0,0,2.2416,2.2441,2.2485,2.2505,2.2519,2.2555,2.2572,2.2591,2.2622,2.2634,2.2662,2.2691,2.2718,2.2735,2.2761,2.2786,2.2796,2.2794,2.2793,2.2792,2.2793,2.2809,2.2809,2.2808,2.2808,2.2808,0,0,2.2408,2.244,2.2453,2.2499,2.2524,2.2549,2.2565,2.259,2.2609,2.2638,2.2667,2.2689,2.2723,2.275,2.2763,2.2767,2.2796,2.2792,2.2791,2.2793,2.2809,2.2809,2.2809,2.2808,2.2808,2.2808,0,0,2.2406,2.2433,2.2453,2.2478,2.2516,2.254,2.2545,2.2587,2.2603,2.2633,2.2655,2.2677,2.2722,2.2746,2.2764,2.2772,2.2787,2.2779,2.2773,2.2788,2.2788,2.2788,2.2791,2.2792,2.2781,2.2781,2.2781,0,2.2392,2.2431,2.2461,2.2486,2.2506,2.2534,2.2555,2.2577,2.2621,2.2633,2.2638,2.2696,2.2721,2.2754,2.2756,2.2769,2.2776,2.2775,2.2785,2.2786,2.2786,2.279,2.2791,2.278,2.278,2.278,2.278,0,2.2411,2.2437,2.2449,2.2492,2.2513,2.2535,2.2569,2.2587,2.2604,2.2628,2.2658,2.2689,2.2723,2.2732,2.2749,2.2768,2.277,2.2779,2.2786,2.2785,2.2789,2.2791,2.2778,2.2778,2.2779,2.2779,0,0,2.239,2.2451,2.2455,2.2475,2.2519,2.254,2.2563,2.2598,2.2612,2.2642,2.2662,2.27,2.271,2.273,2.275,2.2762,2.2768,2.2771,2.2772,2.2769,2.2791,2.2784,2.2785,2.2778,2.2778,2.2779,2.2788,0,2.2395,2.244,2.2469,2.2502,2.2527,2.2554,2.2575,2.2604,2.2626,2.265,2.2675,2.2701,2.2712,2.2724,2.2738,2.2764,2.2772,2.2764,2.2797,2.2798,2.2788,2.2787,2.2779,2.2787,2.279,2.279,2.279,0,2.2407,2.2437,2.2473,2.2515,2.2527,2.2545,2.2579,2.2601,2.2635,2.265,2.2673,2.2694,2.2719,2.2724,2.276,2.2754,2.2769,2.2784,2.2785,2.2789,2.2794,2.2792,2.279,2.2791,2.2793,2.2793,2.2793,0,2.2389,2.2439,2.2467,2.2483,2.2533,2.2545,2.2566,2.2599,2.2618,2.2648,2.266,2.2692,2.2709,2.2733,2.2761,2.2762,2.2794,2.2801,2.2808,2.2807,2.2813,2.2813,2.2814,2.2822,2.2822,2.2822,2.2822,0,2.2392,2.2413,2.246,2.2477,2.2501,2.2534,2.2557,2.258,2.2609,2.2631,2.2656,2.2676,2.2712,2.2736,2.2758,2.2785,2.2792,2.2805,2.2811,2.2804,2.2802,2.2814,2.2815,2.2823,2.2822,2.2822,2.2822,0,2.2377,2.2409,2.2441,2.2486,2.2498,2.2514,2.2552,2.2569,2.2593,2.2621,2.2629,2.2667,2.2696,2.2727,2.2767,2.2782,2.2808,2.2815,2.2797,2.28,2.2805,2.2804,2.2815,2.2818,2.2823,2.2823,2.2823,0,2.2377,2.2394,2.2441,2.2458,2.2479,2.2505,2.2525,2.2558,2.2577,2.2617,2.263,2.2662,2.2689,2.2735,2.2766,2.2796,2.2805,2.2807,2.281,2.2802,2.2806,2.2805,2.2807,2.2806,2.2806,2.2805,2.2805,0,2.2373,2.2389,2.2417,2.2451,2.2474,2.2502,2.2531,2.2543,2.2581,2.2602,2.2633,2.2655,2.2696,2.2728,2.2762,2.2783,2.2801,2.2804,2.2807,2.28,2.2789,2.2796,2.2794,2.2804,2.2804,2.2804,2.2804,2.2804,2.2366,2.2383,2.2419,2.2449,2.2475,2.2501,2.2521,2.2548,2.2575,2.2612,2.2629,2.2661,2.2694,2.2742,2.2763,2.2788,2.2793,2.2797,2.2798,2.2799,2.2798,2.2785,2.2794,2.2794,2.2794,2.2794,2.2794,0,2.2364,2.2389,2.2417,2.2458,2.2482,2.2497,2.253,2.2549,2.2577,2.2607,2.2634,2.267,2.2701,2.2734,2.2766,2.278,2.2789,2.2787,2.2787,2.2792,2.2791,2.2785,2.278,2.278,2.278,2.278,2.278,2.278,2.2366,2.2396,2.2415,2.2458,2.2482,2.2514,2.2532,2.2556,2.2581,2.2621,2.2647,2.2669,2.27,2.2735,2.2764,2.2773,2.2784,2.2781,2.2792,2.2791,2.2792,2.2793,2.2788,2.2782,2.2782,2.279,2.279,2.279]}]]